Tracking 26922 objects as of 31-Jan-2023
HD Live streaming from Space Station
objects crossing your sky now

CZ-6A DEB

Track CZ-6A DEB now!
10-day predictions


NORAD ID: 54313
Int'l Code: 2022-151BG
Perigee: 680.4 km
Apogee: 858.9 km
Inclination: 98.7 °
Period: 100.1 minutes
Semi major axis: 7140 km
RCS: Unknown
Launch date: November 11, 2022
Source: People's Republic of China (PRC)
Launch site: Taiyaun Space Center, China (TSC)

Note: This is SATELLITE DEBRIS
Your satellite tracking list
Your tracking list is empty




NASA's NSSDC Master Catalog

Two Line Element Set (TLE):
1 54313U 22151BG  23031.50747848  .00008960  00000-0  26720-2 0  9991
2 54313  98.6934  42.1075 0124996  60.9981 300.3666 14.38800110 10999
Source of the keplerian elements: AFSPC